User: anonymous   Login
Location: Newark
(45.0667°N, 7.8333°E)
Time: 17:08:59
(UTC+00:00)
Language:

XW-2B - Orbit

View from above orbital plane
View from above orbital plane
View from above satellite
View from above satellite

Ground track
Ground track

The orbit data is extracted from the following two-line orbital elements,

1 40911U 15049N   19295.50909833  .00000368  00000-0  22614-4 0  9993
2 40911  97.4721 295.8892 0015332 116.9453  41.5820 15.15913574225968
Epoch (UTC): 22 October 2019 12:13:06
Eccentricity: 0.0015332
inclination: 97.4721°
perigee height: 507 km
apogee height: 529 km
right ascension of ascending node: 295.8892°
argument of perigee: 116.9453°
revolutions per day: 15.15913574
mean anomaly at epoch: 41.5820°
orbit number at epoch: 22596

The dashed part of the orbit path shows where the satellite is in the earth's shadow,  

DLR